N172SB KHSV-KBHM

Flight info

Callsign N172SB
Flight time 0h 43m
Altitude 4000
Route KCMD/N0112F030
Aircraft C172/L-SFG/C

Departure

Time 2026-04-15 13:41
Airport Huntsville International Airport (KHSV)

Arrival

Time 2026-04-15 14:24
Airport Birmingham-Shuttlesworth International Airport (KBHM)
Time Latitude Longitude Altitude Speed Heading
2026-04-15 13:15 34.64275 -86.76242 608 ft 0 kts 270°
2026-04-15 13:31 34.64275 -86.76244 608 ft 1 kts 269°
2026-04-15 13:31 34.64274 -86.76261 608 ft 4 kts 265°
2026-04-15 13:31 34.64274 -86.76269 608 ft 0 kts 261°
2026-04-15 13:32 34.64272 -86.76286 608 ft 0 kts 262°
2026-04-15 13:32 34.64275 -86.76327 608 ft 9 kts 308°
2026-04-15 13:32 34.64367 -86.76341 607 ft 13 kts 357°
2026-04-15 13:33 34.64411 -86.76349 606 ft 0 kts 346°
2026-04-15 13:33 34.64416 -86.76350 606 ft 3 kts 341°
2026-04-15 13:33 34.64451 -86.76388 605 ft 3 kts 306°
2026-04-15 13:33 34.64471 -86.76424 605 ft 6 kts 300°
2026-04-15 13:34 34.64477 -86.76441 605 ft 0 kts 287°
2026-04-15 13:34 34.64477 -86.76442 605 ft 0 kts 286°
2026-04-15 13:34 34.64479 -86.76450 605 ft 2 kts 283°
2026-04-15 13:34 34.64481 -86.76459 605 ft 2 kts 279°
2026-04-15 13:35 34.64479 -86.76513 604 ft 10 kts 264°
2026-04-15 13:35 34.64482 -86.76631 602 ft 17 kts 281°
2026-04-15 13:35 34.64542 -86.76714 601 ft 16 kts 359°
2026-04-15 13:35 34.64675 -86.76712 601 ft 21 kts
2026-04-15 13:36 34.64841 -86.76708 601 ft 25 kts
2026-04-15 13:36 34.65034 -86.76704 601 ft 29 kts
2026-04-15 13:36 34.65216 -86.76700 601 ft 21 kts
2026-04-15 13:36 34.65289 -86.76662 601 ft 0 kts 62°
2026-04-15 13:37 34.65290 -86.76659 601 ft 0 kts 63°
2026-04-15 13:38 34.65291 -86.76657 601 ft 2 kts 63°
2026-04-15 13:38 34.65304 -86.76628 602 ft 0 kts 60°
2026-04-15 13:39 34.65306 -86.76618 602 ft 4 kts 84°
2026-04-15 13:39 34.65266 -86.76548 602 ft 16 kts 170°
2026-04-15 13:40 34.65038 -86.76550 601 ft 52 kts 180°
2026-04-15 13:40 34.64581 -86.76549 660 ft 69 kts 176°
2026-04-15 13:40 34.64094 -86.76583 792 ft 74 kts 182°
2026-04-15 13:40 34.63559 -86.76542 946 ft 79 kts 179°
2026-04-15 13:41 34.63057 -86.76692 1180 ft 72 kts 196°
2026-04-15 13:41 34.62510 -86.76807 1263 ft 81 kts 188°
2026-04-15 13:41 34.61915 -86.76859 1318 ft 91 kts 182°
2026-04-15 13:41 34.61280 -86.76952 1412 ft 92 kts 188°
2026-04-15 13:42 34.60645 -86.77049 1467 ft 96 kts 187°
2026-04-15 13:42 34.59953 -86.77144 1493 ft 98 kts 190°
2026-04-15 13:42 34.59257 -86.77310 1432 ft 107 kts 191°
2026-04-15 13:42 34.58519 -86.77478 1390 ft 109 kts 190°
2026-04-15 13:43 34.57793 -86.77623 1468 ft 102 kts 188°
2026-04-15 13:43 34.57098 -86.77718 1524 ft 101 kts 185°
2026-04-15 13:43 34.56389 -86.77738 1526 ft 104 kts 180°
2026-04-15 13:43 34.55682 -86.77678 1594 ft 102 kts 175°
2026-04-15 13:44 34.54961 -86.77535 1592 ft 106 kts 171°
2026-04-15 13:44 34.54276 -86.77324 1594 ft 107 kts 167°
2026-04-15 13:44 34.53573 -86.77032 1597 ft 108 kts 162°
2026-04-15 13:44 34.52877 -86.76662 1603 ft 108 kts 158°
2026-04-15 13:45 34.52211 -86.76221 1609 ft 109 kts 153°
2026-04-15 13:45 34.51575 -86.75713 1620 ft 109 kts 149°
2026-04-15 13:45 34.50985 -86.75150 1684 ft 104 kts 144°
2026-04-15 13:47 34.47319 -86.70715 1772 ft 109 kts 168°
2026-04-15 13:47 34.46587 -86.70567 1795 ft 106 kts 181°
2026-04-15 13:47 34.45852 -86.70753 1751 ft 107 kts 201°
2026-04-15 13:48 34.45198 -86.71074 1729 ft 99 kts 205°
2026-04-15 13:48 34.44587 -86.71448 1671 ft 96 kts 206°
2026-04-15 13:48 34.43999 -86.71800 1691 ft 89 kts 204°
2026-04-15 13:48 34.43403 -86.72060 1667 ft 91 kts 197°
2026-04-15 13:49 34.42778 -86.72253 1641 ft 92 kts 192°
2026-04-15 13:49 34.42148 -86.72411 1625 ft 92 kts 194°
2026-04-15 13:49 34.41530 -86.72601 1606 ft 92 kts 194°
2026-04-15 13:49 34.40902 -86.72799 1587 ft 92 kts 195°
2026-04-15 13:50 34.40278 -86.72995 1555 ft 93 kts 194°
2026-04-15 13:50 34.39642 -86.73196 1537 ft 93 kts 195°
2026-04-15 13:50 34.39043 -86.73383 1597 ft 86 kts 194°
2026-04-15 13:50 34.38465 -86.73560 1648 ft 84 kts 194°
2026-04-15 13:51 34.37906 -86.73734 1701 ft 83 kts 195°
2026-04-15 13:51 34.37347 -86.73903 1738 ft 82 kts 194°
2026-04-15 13:51 34.36791 -86.74068 1755 ft 82 kts 194°
2026-04-15 13:51 34.36231 -86.74236 1818 ft 82 kts 194°
2026-04-15 13:52 34.35676 -86.74398 1827 ft 82 kts 194°
2026-04-15 13:52 34.35113 -86.74564 1870 ft 82 kts 195°
2026-04-15 13:52 34.34558 -86.74726 1910 ft 82 kts 194°
2026-04-15 13:52 34.34009 -86.74883 1944 ft 81 kts 194°
2026-04-15 13:53 34.33457 -86.75039 1978 ft 81 kts 194°
2026-04-15 13:53 34.32905 -86.75195 2016 ft 81 kts 194°
2026-04-15 13:53 34.32353 -86.75350 2050 ft 81 kts 194°
2026-04-15 13:53 34.31799 -86.75507 2093 ft 81 kts 194°
2026-04-15 13:54 34.31251 -86.75658 2127 ft 81 kts 192°
2026-04-15 13:54 34.30682 -86.75723 2165 ft 81 kts 186°
2026-04-15 13:54 34.30125 -86.75818 2194 ft 81 kts 191°
2026-04-15 13:54 34.29568 -86.75957 2224 ft 81 kts 196°
2026-04-15 13:55 34.29023 -86.76145 2263 ft 80 kts 197°
2026-04-15 13:55 34.28488 -86.76338 2308 ft 80 kts 200°
2026-04-15 13:55 34.27952 -86.76491 2354 ft 82 kts 176°
2026-04-15 13:55 34.27403 -86.76280 2386 ft 84 kts 164°
2026-04-15 13:56 34.26864 -86.76003 2429 ft 84 kts 163°
2026-04-15 13:56 34.26327 -86.75729 2464 ft 83 kts 166°
2026-04-15 13:56 34.25762 -86.75616 2493 ft 81 kts 180°
2026-04-15 13:56 34.25198 -86.75578 2529 ft 81 kts 181°
2026-04-15 13:57 34.24632 -86.75547 2565 ft 81 kts 181°
2026-04-15 13:57 34.24071 -86.75519 2597 ft 81 kts 182°
2026-04-15 13:57 34.23501 -86.75490 2631 ft 81 kts 181°
2026-04-15 13:57 34.22924 -86.75462 2663 ft 82 kts 182°
2026-04-15 13:58 34.22357 -86.75429 2695 ft 81 kts 181°
2026-04-15 13:58 34.21787 -86.75401 2734 ft 82 kts 182°
2026-04-15 13:58 34.21218 -86.75369 2761 ft 82 kts 181°
2026-04-15 13:58 34.20638 -86.75336 2762 ft 84 kts 182°
2026-04-15 13:59 34.20038 -86.75335 2753 ft 85 kts 185°
2026-04-15 13:59 34.19442 -86.75339 2745 ft 86 kts 184°
2026-04-15 13:59 34.18834 -86.75345 2748 ft 87 kts 185°
2026-04-15 13:59 34.18230 -86.75349 2746 ft 87 kts 184°
2026-04-15 14:00 34.17627 -86.75352 2754 ft 87 kts 184°
2026-04-15 14:00 34.17017 -86.75355 2760 ft 87 kts 185°
2026-04-15 14:00 34.16407 -86.75359 2757 ft 87 kts 185°
2026-04-15 14:00 34.15801 -86.75363 2761 ft 87 kts 185°
2026-04-15 14:01 34.14584 -86.75382 2755 ft 88 kts 184°
2026-04-15 14:01 34.13965 -86.75390 2751 ft 88 kts 185°
2026-04-15 14:01 34.13356 -86.75400 2750 ft 88 kts 185°
2026-04-15 14:02 34.12743 -86.75409 2746 ft 88 kts 185°
2026-04-15 14:02 34.12124 -86.75413 2750 ft 88 kts 184°
2026-04-15 14:02 34.11510 -86.75417 2742 ft 88 kts 185°
2026-04-15 14:02 34.10894 -86.75421 2747 ft 87 kts 185°
2026-04-15 14:03 34.10288 -86.75426 2752 ft 87 kts 185°
2026-04-15 14:03 34.09676 -86.75429 2755 ft 87 kts 184°
2026-04-15 14:03 34.09073 -86.75433 2753 ft 87 kts 185°
2026-04-15 14:03 34.08457 -86.75434 2753 ft 87 kts 185°
2026-04-15 14:04 34.07847 -86.75436 2751 ft 88 kts 185°
2026-04-15 14:04 34.07236 -86.75437 2750 ft 88 kts 184°
2026-04-15 14:04 34.06617 -86.75442 2748 ft 88 kts 185°
2026-04-15 14:04 34.05997 -86.75449 2744 ft 88 kts 185°
2026-04-15 14:05 34.05384 -86.75460 2737 ft 88 kts 185°
2026-04-15 14:05 34.04766 -86.75472 2740 ft 87 kts 185°
2026-04-15 14:05 34.04160 -86.75487 2744 ft 88 kts 185°
2026-04-15 14:05 34.03544 -86.75496 2742 ft 87 kts 184°
2026-04-15 14:06 34.02937 -86.75504 2737 ft 87 kts 185°
2026-04-15 14:06 34.02330 -86.75504 2736 ft 87 kts 185°
2026-04-15 14:06 34.01728 -86.75506 2737 ft 87 kts 184°
2026-04-15 14:06 34.01117 -86.75506 2732 ft 86 kts 185°
2026-04-15 14:07 34.00525 -86.75502 2745 ft 86 kts 185°
2026-04-15 14:07 33.99919 -86.75500 2743 ft 86 kts 184°
2026-04-15 14:07 33.99316 -86.75503 2744 ft 87 kts 185°
2026-04-15 14:07 33.98711 -86.75504 2739 ft 87 kts 185°
2026-04-15 14:08 33.98107 -86.75504 2742 ft 86 kts 185°
2026-04-15 14:08 33.97503 -86.75504 2750 ft 86 kts 185°
2026-04-15 14:08 33.96903 -86.75505 2747 ft 87 kts 184°
2026-04-15 14:08 33.96288 -86.75514 2739 ft 87 kts 185°
2026-04-15 14:09 33.95687 -86.75520 2738 ft 86 kts 184°
2026-04-15 14:09 33.95082 -86.75530 2746 ft 87 kts 185°
2026-04-15 14:09 33.94472 -86.75545 2740 ft 87 kts 185°
2026-04-15 14:09 33.93868 -86.75562 2747 ft 87 kts 185°
2026-04-15 14:10 33.93247 -86.75573 2739 ft 89 kts 185°
2026-04-15 14:10 33.92633 -86.75578 2728 ft 88 kts 184°
2026-04-15 14:10 33.92012 -86.75583 2726 ft 87 kts 185°
2026-04-15 14:10 33.91404 -86.75587 2728 ft 87 kts 184°
2026-04-15 14:11 33.90806 -86.75599 2736 ft 86 kts 185°
2026-04-15 14:11 33.90201 -86.75604 2748 ft 85 kts 185°
2026-04-15 14:11 33.89606 -86.75603 2753 ft 86 kts 185°
2026-04-15 14:11 33.89003 -86.75600 2755 ft 86 kts 185°
2026-04-15 14:12 33.88394 -86.75597 2753 ft 87 kts 185°
2026-04-15 14:12 33.87786 -86.75594 2754 ft 87 kts 184°
2026-04-15 14:12 33.87173 -86.75594 2755 ft 88 kts 185°
2026-04-15 14:12 33.86552 -86.75600 2754 ft 88 kts 185°
2026-04-15 14:13 33.85935 -86.75606 2745 ft 89 kts 185°
2026-04-15 14:13 33.85311 -86.75614 2751 ft 88 kts 185°
2026-04-15 14:13 33.84695 -86.75617 2760 ft 88 kts 185°
2026-04-15 14:13 33.84082 -86.75618 2761 ft 88 kts 185°
2026-04-15 14:14 33.83467 -86.75616 2758 ft 88 kts 185°
2026-04-15 14:14 33.82851 -86.75615 2756 ft 88 kts 185°
2026-04-15 14:14 33.82230 -86.75610 2759 ft 89 kts 185°
2026-04-15 14:14 33.81603 -86.75609 2759 ft 89 kts 185°
2026-04-15 14:15 33.80984 -86.75604 2757 ft 89 kts 185°
2026-04-15 14:15 33.80360 -86.75600 2754 ft 90 kts 184°
2026-04-15 14:15 33.79736 -86.75606 2734 ft 90 kts 185°
2026-04-15 14:15 33.79111 -86.75616 2737 ft 88 kts 185°
2026-04-15 14:16 33.78489 -86.75628 2743 ft 88 kts 185°
2026-04-15 14:16 33.77884 -86.75642 2746 ft 88 kts 185°
2026-04-15 14:16 33.77271 -86.75651 2735 ft 89 kts 185°
2026-04-15 14:16 33.76622 -86.75663 2681 ft 94 kts 185°
2026-04-15 14:17 33.75967 -86.75679 2637 ft 95 kts 185°
2026-04-15 14:17 33.75276 -86.75700 2496 ft 103 kts 185°
2026-04-15 14:17 33.74532 -86.75725 2340 ft 108 kts 185°
2026-04-15 14:17 33.73778 -86.75648 2197 ft 111 kts 175°
2026-04-15 14:18 33.73025 -86.75487 2134 ft 107 kts 174°
2026-04-15 14:18 33.72305 -86.75317 2061 ft 105 kts 174°
2026-04-15 14:18 33.71578 -86.75144 1990 ft 105 kts 174°
2026-04-15 14:18 33.70865 -86.74977 1919 ft 105 kts 174°
2026-04-15 14:19 33.70139 -86.74812 1840 ft 105 kts 174°
2026-04-15 14:19 33.69408 -86.74689 1765 ft 105 kts 179°
2026-04-15 14:19 33.68681 -86.74618 1698 ft 105 kts 180°
2026-04-15 14:19 33.67949 -86.74559 1627 ft 105 kts 180°
2026-04-15 14:20 33.67214 -86.74504 1559 ft 106 kts 180°
2026-04-15 14:20 33.66474 -86.74452 1489 ft 106 kts 180°
2026-04-15 14:20 33.65739 -86.74403 1414 ft 106 kts 180°
2026-04-15 14:20 33.64998 -86.74353 1343 ft 106 kts 180°
2026-04-15 14:21 33.64262 -86.74305 1273 ft 106 kts 180°
2026-04-15 14:21 33.63526 -86.74283 1196 ft 105 kts 188°
2026-04-15 14:21 33.62809 -86.74382 1150 ft 103 kts 190°
2026-04-15 14:21 33.62087 -86.74493 1089 ft 104 kts 189°
2026-04-15 14:22 33.61404 -86.74535 1170 ft 90 kts 182°
2026-04-15 14:22 33.60788 -86.74446 1195 ft 87 kts 168°
2026-04-15 14:22 33.60230 -86.74123 1126 ft 91 kts 150°
2026-04-15 14:22 33.59707 -86.73692 1105 ft 86 kts 147°
2026-04-15 14:23 33.59242 -86.73309 1101 ft 79 kts 154°
2026-04-15 14:23 33.58727 -86.73118 1041 ft 75 kts 180°
2026-04-15 14:23 33.58213 -86.73149 923 ft 71 kts 191°
2026-04-15 14:23 33.57792 -86.73377 814 ft 65 kts 224°
2026-04-15 14:24 33.57477 -86.73753 715 ft 62 kts 226°
2026-04-15 14:24 33.57220 -86.74143 648 ft 57 kts 237°
2026-04-15 14:24 33.56994 -86.74506 637 ft 53 kts 234°
2026-04-15 14:24 33.56785 -86.74882 630 ft 49 kts 239°
2026-04-15 14:25 33.56695 -86.75047 625 ft 0 kts 236°
2026-04-15 14:25 33.56694 -86.75047 625 ft 0 kts 236°
2026-04-15 14:25 33.56692 -86.75054 625 ft 2 kts 262°
2026-04-15 14:26 33.56712 -86.75099 625 ft 9 kts 309°
2026-04-15 14:26 33.56772 -86.75174 626 ft 13 kts 315°
2026-04-15 14:26 33.56831 -86.75243 629 ft 10 kts 314°
2026-04-15 14:26 33.56873 -86.75300 631 ft 7 kts 295°
2026-04-15 14:27 33.56872 -86.75362 632 ft 9 kts 251°
2026-04-15 14:27 33.56834 -86.75441 631 ft 12 kts 239°
2026-04-15 14:27 33.56781 -86.75536 629 ft 4 kts 233°
2026-04-15 14:27 33.56776 -86.75542 629 ft 2 kts 232°
2026-04-15 14:28 33.56776 -86.75582 630 ft 5 kts 311°
2026-04-15 14:28 33.56785 -86.75594 631 ft 0 kts 313°